Location: Risskov
(56.1972°N, 10.2480°E)
Time: 11:50:44
(UTC+00:00)

Aureole 2 Rocket - Pass Details

Date: 05 July 2020
Orbit: 304 x 429 km, 73.9° (Epoch: 07 August)

Event Time Altitude Azimuth Distance (km) Brightness Sun altitude
Rises 22:45:43 0° 325° (NW) 2,105 7.1 -10.7°
Reaches altitude 10° 22:47:43 10° 316° (NW) 1,284 5.6 -10.8°
Maximum altitude 22:50:17 33° 249° (WSW) 606 2.9 -10.8°
Enters shadow 22:51:58 18° 192° (SSW) 973 3.5 -10.8°
